User: anonymous   Login
Location: Unspecified
(0.0000°N, 0.0000°E)
Time: 03:30:40
(UTC+00:00)
Language:

Kosmos-2154 - Orbit

View from above orbital plane
View from above orbital plane
View from above satellite
View from above satellite

Ground track
Ground track

The orbit data is extracted from the following two-line orbital elements,

1 21666U 91059A   18321.87630830  .00000029  00000-0  15283-4 0  9999
2 21666  82.9079   4.8749 0024690 350.7944 115.5384 13.73315158365135
Epoch (UTC): 17 November 2018 21:01:53
Eccentricity: 0.0024690
inclination: 82.9079°
perigee height: 969 km
apogee height: 1006 km
right ascension of ascending node: 4.8749°
argument of perigee: 350.7944°
revolutions per day: 13.73315158
mean anomaly at epoch: 115.5384°
orbit number at epoch: 36513

The dashed part of the orbit path shows where the satellite is in the earth's shadow,  

DLR